Location: ???????
(55.3754°N, 39.3545°E)
Time: 15:03:52
(UTC+00:00)

Cosmos 1943 Rocket - Pass Details

Date: 14 April 2026
Orbit: 810 x 844 km, 71.0° (Epoch: 16 May)

Event Time Altitude Azimuth Distance (km) Brightness Sun altitude
Rises 17:20:53 0° 325° (NW) 3,414 6.7 -8.0°
Reaches altitude 10° 17:23:20 10° 325° (NW) 2,476 5.8 -8.3°
Maximum altitude 17:29:02 82° 239° (WSW) 858 2.3 -9.0°
Drops below altitude 10° 17:34:41 10° 152° (SSE) 2,456 4.1 -9.6°
Enters shadow 17:35:07 - 152° (SSE) 2,618 4.2 -9.7°
